COSMOS 2491 DEB *, 45128

Orbit data source: Space-Track

COSMOS 2491 DEB *, 45128 is space debris in LEO originally from a launch on Wed, 25 Dec 2013 UTC launched from the Plesetsk Missile And Space Complex (PKMTR). Debris objects in space refer to the collection of defunct objects orbiting the Earth. Examples of debris include non-operational satellites, rocket bodies, and fragments generated from explosions, collisions, or faulty payload assembly.

Loading next visibility...
Identifier
45128, 2013-076AA
Orbit
LEO
Country
Flag of CISCIS
Related business
Manufacturer
TsNIIKhM
Mission
Spacecraft
Bus & Motor
Unknown
Mass
Unknown
Launch date (UTC)
2013-12-25 (12 years ago)
Launch vehicle
Unknown
Launch site
Plesetsk Missile And Space Complex (PKMTR)
Object type
Payload
Rocket body
Debris
Shape & HBR
Unknown shape, 0.1 m
Radar Cross Section
Small (<0.1 m²)

Expand to show TLE details & history
Last TLE update: 5 days ago

TLE from 5 days ago
0 COSMOS 2491 DEB *
1 45128U 13076AA  26030.05471303  .00004836  00000-0  14744-2 0  9994
2 45128  81.2092 141.3023 0022849 275.5433  84.3150 14.41723071 42133
Epoch: 2026-01-30T01:18Z
TLE epoch observation values (Epoch: 2026-01-30T01:18:47.205Z)
Latitude
0.00004°
Longitude
-7.69294°
Altitude
754.175 km
Speed
7.478 km/s
True Right ascension
09h 25m 12s
True Declination
0° 00' 00"
Sunlit
Object was in full shadow at epoch
Visualization orbit readout
Latitude
Unknown
Longitude
Unknown
Altitude
Unknown
Speed
Unknown
Apparent Right ascension
Unknown
Apparent Declination
Unknown
Sunlit
N/A
Visualization observer readout
Local Sidereal Time
10:08:42
Azimuth
Unknown
Elevation
Unknown
Doppler factor
Unknown
Orbital elements
Apogee altitude
766.232 km
Perigee altitude
733.658 km
Semi-major axis
7,128.082 km
Eccentricity
0.00228
Inclination
81.2092°
RAAN
141.3023°
Arg. of periapsis
275.5433°
True anomaly
84.57562°
Mean anomaly
84.315°
Eccentric anomaly
84.4453°
Mean motion
3.60649 °/min
Orbital period
99.82 mins
BSTAR
0.0014744
Loading maneuver chart data...
Computing Atmospheric mass density...
Loading historical data...
Loading historical data...
Loading historical data...
Loading historical data...
Loading historical data...
Loading historical data...
Loading historical data...

Documentation

Showing up to 5 results
|